Wetbulb
52.56 51.94 51.68 51.97 52.13 52.21 52.34 52.42 52.72 52.73 53.08 53.20 53.20 52.77 52.24 52.08 51.70 51.76 52.03 51.82 51.82 51.56 51.04 50.98 51.35 51.80 50.06 43.13 43.15 51.13 60.42 61.20 59.47 55.24 51.49 50.08 45.57 44.06 41.62 43.66 44.97 43.19 45.44 46.98 47.27 47.18 47.02
50.92 51.10 50.73 50.44 50.31 50.81 51.32 51.11 51.01 51.69 52.27 52.51 52.59 52.53 52.43 51.48 51.55 51.58 52.01 51.76 51.34 50.98 50.99 50.26 50.97 51.49 47.32 37.24 47.67 49.93 49.66 51.42 55.78 53.37 51.66 50.75 48.16 48.98 46.26 45.41 43.85 46.59 46.06 46.20 46.11 45.59 45.43
50.79 50.72 50.53 50.27 50.22 50.38 50.64 50.26 49.95 49.95 50.77 51.37 51.60 51.80 51.80 51.47 51.95 51.91 51.84 51.51 50.56 50.45 50.65 50.09 50.61 49.60 45.19 40.57 45.58 46.70 48.20 48.03 48.71 49.54 46.56 48.73 51.24 47.44 47.59 44.43 47.93 46.56 42.79 43.93 44.35 44.70 44.54
50.67 51.15 50.75 50.49 50.30 51.06 50.89 50.49 50.05 50.22 50.76 50.63 50.49 50.94 51.45 51.93 52.22 51.93 51.13 50.56 50.11 50.28 50.56 50.23 50.69 49.24 40.30 50.25 48.45 48.59 48.03 48.30 49.30 48.24 47.42 47.99 48.13 46.41 46.02 47.64 46.53 43.15 41.24 36.36 43.24 44.45 45.94
49.40 49.92 50.68 50.29 49.85 50.26 50.82 51.13 50.46 49.92 49.73 50.16 50.41 50.58 50.82 51.18 51.57 51.18 50.68 50.12 49.92 50.26 50.23 50.45 46.95 45.40 39.02 53.15 49.36 50.92 50.34 47.57 47.92 46.94 45.58 48.58 46.75 44.24 44.81 40.53 37.65 38.18 36.23 36.97 39.90 45.02 43.98
49.01 49.43 49.36 49.83 49.97 49.86 49.65 50.32 50.52 50.11 49.86 49.47 49.85 49.88 50.26 50.12 50.85 50.45 49.88 49.36 49.13 49.92 48.92 49.50 49.50 42.06 44.90 43.97 48.74 50.03 48.76 50.35 46.78 47.57 43.09 42.45 40.59 37.20 38.06 37.32 32.31 34.86 35.27 37.75 36.82 41.58 43.66
48.88 48.69 50.07 49.46 49.31 49.33 49.76 49.95 50.11 50.11 49.56 49.70 49.55 49.41 50.03 49.97 50.09 50.27 47.38 40.20 40.05 39.30 41.78 40.77 43.02 42.61 44.60 49.09 52.52 48.05 47.83 45.06 44.45 43.36 38.50 39.33 33.38 31.73 34.42 39.70 41.50 40.43 38.27 36.70 38.09 43.40 41.06
48.33 48.53 48.72 48.57 48.49 48.79 48.68 48.84 49.13 49.36 48.69 48.84 49.09 48.89 49.22 49.97 49.71 49.82 42.76 37.58 40.64 42.96 34.96 42.79 42.76 42.62 45.16 46.99 41.60 44.91 47.40 39.99 39.76 36.18 40.65 36.64 32.47 37.41 38.89 38.48 38.36 39.30 37.21 36.72 40.57 42.58 41.83
47.85 47.82 47.50 47.62 47.71 48.09 48.65 48.65 48.41 48.48 48.43 48.15 48.22 48.25 48.68 49.20 48.87 42.80 39.09 39.42 45.91 45.59 35.35 37.47 40.47 39.83 41.07 43.06 38.54 39.57 42.63 39.28 36.75 35.38 38.93 37.33 38.78 40.58 38.18 36.52 35.79 36.26 35.93 36.51 36.70 40.69 41.90
47.83 47.63 47.49 47.47 47.62 47.58 47.94 47.88 47.84 48.04 47.85 47.82 47.97 48.10 48.60 48.71 41.67 40.38 36.75 43.56 46.13 45.47 28.08 31.25 36.71 38.82 41.83 42.15 37.57 42.74 43.20 39.87 37.24 34.45 36.32 39.40 44.01 42.25 38.77 35.69 36.66 32.15 38.35 38.28 37.85 36.24 31.45
46.33 46.36 46.56 47.00 47.12 46.96 47.06 46.85 46.91 47.64 47.24 47.20 47.39 47.46 47.89 47.70 39.64 37.80 40.25 44.55 45.21 43.25 14.76 34.25 37.35 43.76 42.02 38.87 41.25 42.70 42.86 39.51 35.20 36.50 37.05 35.10 39.45 40.06 38.96 39.16 38.98 35.23 39.58 38.57 38.05 35.32 33.13
45.48 45.20 46.01 46.19 46.19 46.26 46.54 46.29 46.69 46.97 47.29 47.08 46.91 46.99 47.34 43.03 39.31 41.32 43.36 42.97 41.92 26.42 15.20 30.38 40.33 39.26 36.90 38.25 41.01 43.21 41.21 42.10 41.10 36.38 37.07 36.67 40.64 39.07 40.11 42.44 41.82 41.20 38.08 38.13 37.73 35.08 29.62
45.11 45.18 45.42 45.65 45.73 46.11 46.20 46.11 46.54 46.59 46.67 46.75 46.22 46.38 45.35 44.72 35.73 41.32 42.93 39.16 24.86 18.18 32.20 29.57 32.76 35.93 36.54 37.09 37.93 39.60 38.48 35.69 32.49 28.65 29.75 34.25 36.00 39.32 39.99 35.80 38.85 38.40 34.11 27.47 26.24 25.91 26.22
45.14 45.09 45.01 45.50 45.65 45.84 46.22 46.39 46.19 45.91 46.12 46.31 46.35 46.15 43.75 42.98 41.87 41.85 40.06 32.18 19.27 24.96 26.05 33.45 33.77 34.51 33.02 38.61 38.69 38.58 36.71 32.57 36.20 34.34 30.11 27.67 26.01 35.19 38.89 36.65 34.71 35.82 34.80 27.25 23.54 24.36 27.89
45.32 44.70 45.01 45.64 45.20 45.43 45.70 45.79 45.61 45.89 45.78 45.95 45.78 38.97 37.61 40.06 42.29 41.66 35.30 21.97 22.76 26.95 31.92 29.87 32.18 31.06 30.91 33.44 35.04 37.09 36.43 35.35 36.73 37.56 31.12 30.50 29.25 40.20 38.78 39.70 39.01 35.70 33.71 38.26 31.84 33.62 28.39
44.88 44.62 44.45 44.79 44.87 44.94 45.14 45.27 45.32 45.52 45.49 45.54 40.23 37.76 35.78 40.37 42.24 38.37 31.26 24.54 26.90 32.54 32.41 32.16 26.13 31.07 26.39 28.76 31.47 34.02 33.01 37.87 36.00 38.49 39.33 36.96 31.44 40.09 41.88 41.68 39.20 38.44 40.78 32.68 32.26 24.82 23.38
44.34 44.23 44.58 44.25 44.74 44.92 44.96 44.96 45.15 45.20 45.46 45.55 34.66 31.19 35.91 41.52 41.34 33.64 24.77 24.52 29.20 33.99 34.11 30.45 28.10 27.60 29.69 28.91 30.10 32.85 31.57 36.72 38.82 37.35 39.09 36.24 35.17 34.50 39.57 35.71 33.17 34.47 35.08 35.62 36.16 32.25 26.70
44.05 44.32 44.42 44.26 44.89 44.78 44.71 44.95 44.78 45.08 45.38 40.90 36.14 26.98 37.36 42.76 31.42 30.39 28.38 30.02 34.21 32.12 34.75 32.06 33.07 31.62 30.55 30.65 29.54 31.98 31.35 33.26 40.03 38.56 34.52 36.62 33.59 30.39 36.64 40.48 41.74 39.61 36.77 37.86 30.31 28.97 31.82
43.31 44.35 44.49 44.30 44.51 44.77 45.01 45.00 45.01 45.15 44.72 35.26 32.50 29.42 37.61 37.27 21.47 27.53 29.77 30.85 32.94 31.93 32.55 31.44 31.25 32.88 33.97 30.76 26.99 31.82 33.76 38.38 40.15 37.36 33.98 35.19 31.87 26.73 33.15 37.19 39.25 35.60 37.88 40.66 37.93 34.98 30.45
43.30 44.08 44.01 44.10 44.44 44.70 44.58 44.70 44.95 45.16 44.60 38.58 32.71 25.29 28.37 36.61 35.03 30.00 29.70 28.60 28.98 35.24 33.39 34.70 33.20 33.83 30.18 28.22 32.22 29.29 31.88 36.55 38.65 38.31 38.56 37.84 32.67 27.83 25.00 31.92 35.24 31.04 33.63 37.66 36.73 29.16 30.71
43.20 43.42 44.04 43.87 44.45 44.26 44.22 44.35 44.42 44.74 44.50 37.51 33.01 26.71 28.74 18.27 24.83 29.41 31.32 29.90 28.51 28.67 34.07 34.71 31.26 31.37 28.98 24.39 26.16 25.85 30.60 32.49 35.56 39.53 39.41 35.79 30.02 31.87 32.37 34.46 35.43 33.04 33.09 33.30 34.03 33.75 29.87
43.37 43.46 43.43 43.90 44.06 44.16 43.81 43.74 44.07 44.22 44.30 34.20 29.65 30.30 30.09 27.96 30.41 27.76 28.47 28.27 28.96 29.57 31.25 30.64 29.60 31.81 31.32 27.21 28.65 27.63 31.26 31.26 30.75 36.23 34.95 37.32 30.84 31.98 28.53 33.67 34.50 32.92 34.47 34.41 35.05 34.76 34.14
42.29 42.99 43.00 43.78 43.82 43.75 43.75 43.88 44.10 44.41 42.80 35.32 36.60 34.97 32.15 27.40 26.12 22.69 25.19 28.39 28.95 31.22 32.99 34.41 33.38 31.50 29.72 32.52 34.93 35.31 35.41 34.82 34.00 33.42 31.89 33.51 31.22 28.66 25.89 32.23 32.67 26.12 31.69 34.04 35.04 36.70 36.08
42.12 42.52 42.77 43.33 43.54 43.70 43.57 43.80 44.26 44.19 42.54 35.71 33.89 35.84 31.26 22.11 25.49 26.10 28.45 29.41 29.69 31.33 30.36 33.30 33.90 31.60 36.35 40.00 38.42 36.96 35.79 35.16 34.50 34.25 35.54 31.02 30.10 28.10 25.18 28.10 20.41 33.39 38.89 37.81 38.26 39.17 39.53
41.68 42.22 42.39 43.05 43.42 43.47 43.99 44.21 43.80 44.38 44.11 36.15 35.53 34.89 31.59 20.63 26.84 27.20 28.90 29.27 30.73 31.98 31.38 32.11 34.77 36.90 38.70 36.08 28.62 27.31 26.38 27.44 29.88 33.06 31.98 33.35 30.08 23.49 21.97 22.67 28.89 32.94 37.19 36.33 36.29 36.15 41.02
42.34 41.85 41.54 41.78 42.58 43.15 43.65 43.52 43.61 44.07 44.16 37.34 35.47 37.19 36.11 29.57 24.67 30.28 28.37 30.01 27.16 26.98 29.13 32.19 36.99 38.46 38.05 31.21 25.52 23.47 19.55 25.41 24.62 28.21 34.32 32.22 31.56 25.83 24.20 21.05 18.33 32.90 38.58 41.13 39.61 32.21 41.60
41.82 41.97 41.51 41.68 42.53 42.92 43.04 43.26 43.43 43.51 43.79 38.24 35.41 37.80 35.94 30.07 30.27 30.50 26.22 27.12 31.61 30.41 26.90 30.62 32.17 31.76 37.59 27.37 25.16 22.68 22.45 30.45 24.97 25.92 25.07 24.49 24.31 23.94 22.77 21.19 28.55 37.15 40.26 41.41 28.61 30.99 41.33
41.19 41.40 41.09 41.68 42.31 42.64 42.91 42.85 43.01 43.48 43.75 40.38 35.59 38.17 35.95 30.14 30.83 33.26 33.79 29.33 29.50 29.46 27.46 30.52 28.57 31.58 29.65 27.68 27.21 25.17 23.14 28.85 28.03 31.63 30.78 25.22 21.71 19.60 23.50 20.94 20.95 39.62 40.23 34.04 38.20 39.85 40.59
40.91 40.93 40.97 41.52 42.16 42.49 42.60 42.69 42.93 43.40 43.58 43.39 37.17 40.94 38.95 33.85 30.29 36.61 37.07 37.45 36.52 35.54 31.43 32.32 30.52 31.17 34.21 29.31 29.60 29.68 26.91 29.94 29.89 26.27 33.46 27.62 29.19 27.51 28.42 28.22 37.70 40.41 40.80 44.65 43.52 40.52 39.46
MSLP
1024.46 1024.57 1024.34 1024.11 1023.75 1023.53 1023.42 1023.33 1023.24 1023.23 1023.07 1022.76 1022.37 1022.12 1021.77 1021.38 1020.85 1020.23 1019.94 1019.42 1018.72 1018.25 1017.92 1017.52 1017.13 1016.74 1015.94 1014.66 1011.06 1008.49 1008.30 1008.48 1008.90 1008.79 1008.58 1008.67 1008.81 1008.92 1009.04 1008.64 1008.41 1008.15 1007.59 1007.13 1006.62 1006.21 1005.64
1024.19 1024.24 1024.44 1024.16 1023.85 1023.44 1023.39 1023.18 1023.12 1023.05 1022.77 1022.72 1022.27 1022.07 1021.75 1021.25 1020.65 1020.01 1019.59 1018.95 1018.40 1017.88 1017.37 1017.07 1016.78 1016.68 1016.29 1014.01 1008.87 1008.08 1008.36 1008.49 1008.51 1008.61 1008.06 1008.21 1008.10 1007.90 1008.10 1008.07 1007.83 1007.05 1006.92 1006.51 1006.08 1005.76 1005.42
1023.99 1024.14 1023.97 1024.09 1024.03 1023.51 1023.21 1022.98 1023.02 1022.94 1022.63 1022.41 1022.21 1021.88 1021.51 1020.96 1020.28 1019.74 1018.92 1018.48 1017.66 1017.05 1016.75 1016.53 1016.23 1016.30 1015.58 1010.94 1008.51 1008.27 1008.75 1008.42 1007.99 1007.80 1007.75 1007.27 1007.55 1007.80 1007.61 1007.57 1006.82 1006.80 1007.01 1006.39 1005.78 1005.48 1005.07
1024.01 1023.75 1023.84 1023.78 1023.62 1023.48 1023.28 1023.17 1022.91 1022.79 1022.59 1022.11 1021.90 1021.72 1021.27 1020.72 1020.19 1019.52 1018.67 1017.72 1016.56 1015.96 1015.69 1015.85 1015.57 1015.74 1013.69 1009.51 1008.90 1008.46 1008.40 1007.82 1007.42 1007.09 1006.95 1006.63 1006.85 1007.30 1007.41 1007.26 1006.86 1006.90 1006.77 1006.26 1005.35 1005.14 1004.73
1023.83 1023.86 1023.68 1023.62 1023.46 1023.34 1023.13 1022.90 1022.92 1022.64 1022.47 1021.95 1021.76 1021.41 1021.14 1020.47 1019.84 1019.11 1018.21 1017.08 1015.40 1014.50 1014.55 1014.97 1015.55 1015.24 1012.12 1009.04 1008.47 1006.86 1007.24 1007.31 1006.72 1006.37 1006.34 1006.37 1006.56 1006.84 1006.90 1007.40 1007.64 1007.23 1006.61 1006.22 1005.84 1005.07 1004.97
1023.80 1023.89 1023.64 1023.52 1023.27 1023.25 1023.08 1022.69 1022.70 1022.59 1022.25 1021.88 1021.69 1021.32 1020.86 1020.38 1019.67 1018.83 1018.10 1016.18 1014.29 1013.86 1014.17 1014.62 1014.65 1014.91 1010.89 1008.58 1007.37 1006.55 1006.27 1006.27 1006.50 1006.46 1006.52 1006.71 1006.79 1006.58 1006.89 1007.47 1006.56 1007.32 1006.78 1006.10 1005.76 1005.17 1004.65
1023.58 1023.57 1023.42 1023.46 1023.22 1023.26 1023.09 1022.57 1022.48 1022.37 1021.98 1021.64 1021.53 1021.18 1020.76 1020.20 1019.65 1018.90 1018.30 1016.77 1015.47 1014.70 1014.59 1014.14 1013.55 1012.21 1009.58 1008.22 1007.40 1006.73 1006.62 1006.53 1006.31 1006.50 1006.95 1006.58 1006.72 1006.14 1006.43 1006.47 1006.60 1006.94 1006.64 1005.89 1005.56 1005.18 1004.78
1023.56 1023.45 1023.26 1023.36 1023.28 1023.17 1022.97 1022.62 1022.40 1022.17 1021.96 1021.64 1021.50 1021.16 1020.82 1020.22 1019.91 1019.05 1018.73 1018.54 1018.21 1017.54 1014.70 1013.08 1012.20 1011.03 1009.43 1009.64 1008.65 1006.32 1007.05 1007.39 1006.45 1006.48 1006.85 1007.11 1005.35 1005.81 1006.19 1006.24 1006.60 1006.68 1006.47 1005.40 1005.40 1005.24 1004.89
1023.23 1023.27 1023.22 1023.24 1023.20 1022.90 1022.74 1022.61 1022.31 1022.06 1021.77 1021.59 1021.23 1020.92 1020.48 1020.24 1019.62 1019.15 1019.09 1018.41 1017.80 1017.08 1015.68 1011.71 1010.39 1009.18 1007.61 1007.85 1006.22 1004.91 1006.54 1006.37 1006.22 1006.53 1006.42 1006.11 1004.93 1004.81 1005.46 1005.63 1006.08 1005.91 1005.68 1005.51 1005.25 1005.04 1004.40
1022.96 1023.13 1023.07 1023.11 1022.98 1022.64 1022.75 1022.53 1022.30 1022.06 1021.60 1021.37 1020.92 1020.69 1020.52 1020.33 1019.99 1019.76 1019.01 1018.12 1017.56 1017.29 1015.96 1011.10 1009.03 1006.38 1005.56 1005.93 1005.00 1003.55 1004.10 1005.38 1005.56 1005.22 1006.12 1005.48 1004.64 1004.80 1004.78 1004.63 1005.29 1005.01 1004.68 1004.66 1004.93 1005.13 1004.54
1022.69 1022.86 1022.86 1022.81 1022.77 1022.81 1022.59 1022.52 1022.21 1021.78 1021.60 1021.25 1021.01 1020.84 1020.66 1020.51 1020.70 1020.02 1018.80 1018.21 1017.61 1017.06 1015.19 1009.08 1006.14 1003.79 1003.74 1004.21 1002.90 1002.15 1002.56 1004.27 1004.30 1004.41 1005.10 1003.77 1003.53 1003.56 1003.68 1003.40 1004.15 1003.70 1003.94 1004.26 1004.36 1004.39 1004.33
1022.65 1022.58 1022.54 1022.63 1022.73 1022.65 1022.40 1022.22 1021.90 1021.62 1021.27 1021.12 1020.89 1020.65 1020.44 1020.20 1020.03 1019.19 1018.92 1018.47 1018.11 1017.53 1013.52 1009.22 1005.15 1004.29 1004.46 1003.61 1002.82 1002.14 1002.57 1003.24 1003.70 1004.59 1004.08 1003.82 1003.38 1003.25 1002.86 1002.86 1003.03 1003.36 1003.93 1004.09 1004.06 1004.39 1004.18
1022.31 1022.34 1022.33 1022.48 1022.56 1022.37 1022.12 1021.86 1021.52 1021.28 1021.20 1020.96 1020.55 1020.46 1020.45 1020.17 1019.72 1019.06 1019.30 1019.48 1018.36 1015.59 1011.85 1008.63 1006.69 1005.84 1004.76 1003.54 1003.04 1002.78 1002.80 1003.25 1003.53 1004.50 1004.37 1004.05 1002.87 1002.72 1002.92 1002.89 1002.74 1003.18 1003.72 1004.26 1004.37 1004.58 1003.94
1022.02 1022.07 1022.08 1022.12 1022.24 1022.01 1021.75 1021.45 1021.31 1021.16 1021.01 1020.80 1020.50 1020.26 1020.04 1019.66 1019.20 1019.43 1019.56 1019.46 1016.41 1013.68 1011.98 1008.13 1008.31 1006.21 1005.14 1004.11 1003.57 1003.25 1003.41 1003.69 1003.72 1004.02 1004.35 1004.18 1003.14 1002.04 1001.56 1001.64 1002.10 1002.20 1002.91 1003.46 1003.98 1004.26 1003.97
1021.54 1021.78 1021.75 1021.69 1021.79 1021.72 1021.63 1021.34 1021.10 1020.90 1020.73 1020.45 1020.15 1020.09 1019.54 1018.30 1018.58 1019.41 1019.63 1018.07 1015.77 1013.34 1012.00 1010.96 1008.83 1006.88 1006.59 1006.70 1006.36 1004.45 1004.14 1004.22 1003.80 1003.82 1004.53 1003.62 1002.72 1001.02 1000.47 1000.43 1001.36 1001.27 1001.86 1002.17 1003.15 1003.52 1003.87
1021.11 1021.34 1021.36 1021.35 1021.43 1021.45 1021.33 1021.14 1020.85 1020.66 1020.49 1020.36 1020.41 1020.18 1018.99 1017.72 1018.14 1018.97 1018.97 1016.80 1015.15 1013.34 1012.42 1011.57 1010.43 1008.88 1008.81 1008.47 1007.03 1005.76 1005.94 1006.21 1005.61 1005.34 1005.02 1003.55 1002.62 1001.11 1000.38 1000.24 1000.59 1000.56 1000.97 1001.86 1002.38 1003.16 1003.53
1020.73 1020.82 1020.92 1020.96 1021.02 1021.05 1021.00 1020.81 1020.58 1020.41 1020.30 1020.19 1020.66 1020.36 1018.26 1017.51 1018.24 1019.07 1018.22 1016.57 1014.92 1013.61 1012.99 1012.19 1011.23 1010.38 1009.41 1008.72 1007.27 1006.39 1006.73 1005.83 1005.93 1005.74 1005.19 1004.69 1003.16 1002.01 1001.11 1000.86 1000.52 1000.72 1000.81 1001.20 1001.69 1002.53 1002.97
1020.31 1020.39 1020.41 1020.50 1020.57 1020.62 1020.57 1020.47 1020.27 1020.15 1020.13 1020.21 1020.57 1020.24 1018.38 1018.03 1018.72 1018.16 1017.28 1016.20 1014.93 1013.47 1013.17 1012.63 1011.53 1010.19 1008.90 1008.55 1007.75 1007.45 1007.66 1007.70 1006.84 1007.05 1007.50 1006.66 1004.73 1002.84 1001.75 1001.29 1000.91 1000.38 1000.73 1001.09 1001.70 1002.66 1002.92
1019.73 1019.80 1019.90 1020.00 1020.13 1020.20 1020.11 1020.08 1019.99 1019.90 1019.98 1020.58 1020.48 1019.85 1018.34 1018.31 1018.31 1017.72 1016.90 1015.88 1014.96 1013.88 1013.04 1012.22 1011.38 1010.50 1009.43 1009.01 1008.99 1008.32 1008.32 1007.93 1007.48 1007.91 1008.59 1008.39 1006.17 1004.13 1002.25 1002.31 1001.52 1001.54 1001.79 1001.36 1001.50 1002.23 1002.79
1018.98 1019.17 1019.39 1019.48 1019.63 1019.65 1019.63 1019.64 1019.68 1019.67 1019.70 1020.40 1020.66 1020.14 1019.02 1018.55 1018.40 1018.07 1016.92 1016.05 1014.96 1013.90 1012.92 1012.14 1011.13 1010.21 1010.17 1010.21 1010.03 1009.74 1008.69 1008.19 1007.93 1008.01 1008.19 1008.66 1007.70 1005.15 1004.22 1003.70 1003.54 1002.93 1002.57 1002.85 1002.86 1003.15 1003.10
1018.26 1018.41 1018.68 1018.97 1019.02 1019.07 1019.12 1019.23 1019.31 1019.39 1019.46 1020.26 1020.45 1020.12 1019.33 1018.92 1018.46 1017.87 1017.31 1016.48 1015.27 1014.02 1013.16 1012.43 1011.31 1010.91 1010.65 1010.11 1009.82 1009.57 1009.02 1008.40 1007.98 1007.66 1007.92 1008.32 1007.34 1006.18 1005.26 1004.37 1003.82 1003.34 1003.11 1003.48 1003.72 1003.87 1003.40
1017.53 1017.77 1018.04 1018.38 1018.44 1018.52 1018.61 1018.73 1018.89 1019.03 1019.26 1020.20 1020.24 1019.85 1019.49 1019.14 1018.37 1018.02 1017.30 1016.28 1015.41 1014.98 1014.13 1013.06 1012.20 1011.49 1011.18 1011.11 1010.76 1010.49 1009.94 1009.27 1008.92 1008.17 1007.92 1007.74 1007.16 1006.91 1005.97 1004.84 1004.24 1003.84 1003.36 1002.94 1003.07 1003.52 1003.46
1016.89 1017.12 1017.45 1017.73 1017.84 1017.88 1018.03 1018.21 1018.40 1018.61 1019.05 1019.54 1019.67 1019.65 1019.72 1018.96 1018.62 1018.31 1017.30 1016.34 1015.59 1015.21 1013.82 1013.18 1012.71 1011.94 1011.44 1011.20 1010.99 1010.77 1010.44 1009.89 1009.61 1008.65 1008.40 1008.05 1007.87 1007.54 1006.88 1005.75 1004.67 1003.94 1003.41 1002.97 1002.72 1002.68 1002.93
1016.21 1016.42 1016.83 1017.08 1017.16 1017.29 1017.49 1017.69 1017.86 1018.07 1018.50 1019.09 1019.32 1019.43 1019.24 1018.82 1018.43 1017.85 1017.06 1016.36 1015.62 1015.02 1014.38 1013.29 1012.73 1012.11 1011.31 1011.02 1010.60 1010.05 1009.84 1009.54 1009.07 1008.74 1008.46 1008.79 1008.88 1008.63 1007.98 1006.63 1005.34 1003.48 1002.50 1002.41 1002.72 1002.79 1002.44
1015.51 1015.79 1016.14 1016.41 1016.54 1016.69 1016.89 1017.07 1017.24 1017.34 1017.71 1018.63 1018.84 1019.21 1019.20 1018.67 1018.10 1017.57 1016.85 1016.35 1015.60 1014.85 1014.19 1013.33 1012.61 1011.99 1011.40 1011.34 1010.97 1010.49 1009.83 1009.37 1008.68 1008.50 1008.55 1008.70 1009.54 1009.52 1009.15 1007.96 1006.10 1003.87 1003.19 1003.14 1002.84 1003.65 1003.27
1014.70 1015.03 1015.38 1015.68 1015.94 1016.12 1016.22 1016.51 1016.73 1016.80 1016.99 1017.96 1018.34 1018.56 1018.92 1018.39 1017.58 1017.13 1016.85 1016.36 1015.90 1015.35 1014.49 1013.62 1012.83 1012.01 1011.92 1012.13 1012.08 1011.83 1011.16 1009.92 1009.06 1008.16 1007.80 1008.65 1009.05 1009.65 1009.35 1008.61 1006.69 1004.52 1003.31 1002.64 1002.58 1003.47 1003.55
1013.99 1014.29 1014.62 1014.92 1015.28 1015.52 1015.68 1015.95 1016.16 1016.37 1016.56 1017.36 1017.80 1017.92 1018.56 1018.11 1017.24 1016.92 1016.67 1016.22 1015.82 1015.72 1015.44 1014.67 1013.93 1012.89 1012.48 1013.02 1012.89 1012.32 1011.48 1010.34 1009.90 1008.93 1008.44 1008.89 1009.46 1009.60 1009.52 1008.62 1006.70 1004.55 1003.43 1002.92 1003.03 1003.83 1003.24
1013.15 1013.50 1013.88 1014.23 1014.63 1014.81 1015.06 1015.34 1015.61 1015.87 1016.09 1016.75 1017.21 1017.37 1018.01 1017.81 1016.92 1016.50 1016.11 1016.03 1015.90 1015.90 1015.74 1015.26 1014.59 1014.02 1013.95 1013.73 1013.34 1012.44 1011.62 1010.48 1009.89 1009.14 1009.16 1008.89 1009.17 1009.24 1009.21 1008.39 1006.90 1004.34 1003.47 1003.77 1003.77 1003.34 1003.54
1012.34 1012.72 1013.14 1013.49 1013.87 1014.16 1014.47 1014.77 1015.08 1015.38 1015.63 1016.09 1016.73 1016.65 1017.25 1017.62 1016.84 1015.96 1015.69 1015.40 1015.43 1015.32 1015.61 1015.40 1015.48 1015.37 1015.22 1014.94 1014.18 1013.50 1011.85 1010.80 1010.38 1009.26 1008.73 1008.34 1007.43 1007.59 1007.58 1006.69 1005.29 1004.54 1004.09 1003.65 1003.38 1003.65 1004.20
Wind_Speed
9 8 9 10 10 11 12 13 14 13 13 13 13 14 16 18 19 18 18 20 21 23 23 23 20 19 9 4 15 8 3 1 2 5 6 5 7 7 7 6 7 9 15 14 14 15 17
5 7 8 9 10 11 11 12 13 13 13 14 13 15 16 18 18 18 19 20 22 24 23 22 19 16 2 8 6 6 4 3 8 5 4 7 7 8 5 7 10 8 10 16 12 12 6
6 6 7 9 11 11 11 11 12 15 15 15 16 16 17 19 19 19 20 22 24 25 25 23 18 6 7 26 6 14 16 7 5 7 8 6 7 4 3 7 8 9 13 9 5 5 7
8 7 6 9 11 12 11 11 12 14 16 16 15 16 16 18 18 19 22 24 28 28 25 21 11 4 12 9 7 14 7 10 9 10 6 8 5 6 7 6 7 5 4 5 3 1 5
8 9 10 10 10 12 12 12 12 13 16 16 14 15 16 18 17 20 23 28 33 29 19 9 2 4 13 10 6 11 12 9 3 5 6 6 2 6 4 3 3 3 13 10 6 4 4
8 10 10 11 11 12 13 12 12 14 15 15 15 16 17 19 19 21 24 32 27 12 6 6 4 3 8 7 4 7 6 7 6 6 3 5 4 5 2 5 16 8 8 6 6 4 6
8 10 11 10 11 13 14 14 14 14 15 16 17 18 18 19 20 21 19 8 8 6 6 7 8 9 16 6 8 4 5 8 3 4 6 5 4 13 11 11 10 9 8 11 1 5 7
9 9 10 12 13 14 15 16 14 13 15 16 17 17 18 18 19 21 5 4 4 10 15 10 20 26 29 16 15 25 3 2 4 8 4 4 18 11 10 9 10 12 14 20 12 11 13
10 9 10 12 14 14 15 16 17 16 16 15 16 16 17 17 18 7 3 6 12 20 6 12 15 16 11 19 27 34 9 6 9 4 12 16 6 17 13 14 15 15 18 14 16 14 16
9 11 12 13 15 15 15 16 18 15 16 17 16 16 15 16 7 5 6 11 14 13 4 12 9 14 10 9 12 12 19 11 8 19 7 14 16 17 14 18 16 18 17 17 15 10 9
10 12 13 13 14 16 13 15 16 13 15 16 16 16 13 10 4 4 6 10 14 1 6 12 7 7 9 13 1 5 8 13 19 9 11 12 8 20 22 19 17 13 17 15 16 9 4
10 11 11 13 15 15 13 14 14 16 16 16 16 17 16 6 1 6 6 7 4 2 11 10 5 5 5 8 4 2 6 6 7 3 9 13 7 4 7 8 15 12 14 15 13 5 10
12 11 11 12 14 14 14 13 14 15 16 16 17 17 14 5 5 1 5 4 4 9 7 13 9 12 15 7 8 5 4 8 7 7 12 8 22 16 9 7 7 6 3 4 3 2 6
12 10 12 12 12 13 13 12 12 13 15 15 17 17 8 8 5 1 1 4 10 13 23 17 15 17 7 8 6 5 5 7 7 4 2 8 7 14 7 19 6 9 10 7 9 5 5
11 10 12 11 11 12 13 11 12 13 14 14 18 3 4 6 8 4 3 6 4 6 6 13 18 6 15 21 12 8 2 5 9 16 8 6 7 3 5 12 15 9 8 8 6 4 3
11 11 12 11 11 11 11 11 12 13 13 13 4 5 6 5 6 2 4 11 9 9 13 15 13 9 14 17 10 4 7 5 8 8 13 5 9 5 4 4 12 10 6 4 3 8 6
12 12 11 12 13 11 11 12 12 12 12 11 2 4 6 2 5 2 6 6 8 8 11 9 18 19 15 14 15 6 9 5 5 8 13 8 4 4 1 2 4 5 10 1 4 5 10
13 13 12 12 12 10 11 12 11 12 11 3 2 3 4 3 1 3 3 5 7 11 12 13 9 13 3 6 8 4 4 3 5 8 10 8 7 4 5 4 4 4 4 6 5 2 3
14 14 14 12 12 13 12 11 11 11 6 2 3 3 4 3 2 4 5 7 6 13 14 6 9 17 8 6 5 8 3 8 5 4 7 9 6 5 4 3 7 6 6 5 4 4 5
13 14 12 12 13 12 10 9 10 10 5 3 2 3 4 1 2 4 4 5 6 6 12 7 10 12 1 2 2 6 5 3 6 6 13 6 6 3 2 2 1 3 7 9 5 4 1
15 15 13 13 14 10 9 9 9 9 4 4 2 3 4 3 3 2 4 5 11 10 5 7 8 10 10 4 4 3 6 6 10 8 4 6 3 5 6 2 3 3 3 5 3 2 1
14 14 12 13 12 10 10 10 9 9 7 3 2 2 3 3 6 6 6 4 11 15 4 11 8 9 5 4 3 5 6 5 4 5 6 4 3 2 2 6 7 2 4 3 3 4 11
14 15 13 13 11 11 11 12 11 9 8 2 1 3 1 3 2 2 3 4 15 11 10 11 8 5 5 2 1 6 6 6 8 3 3 6 4 4 1 9 4 3 1 5 5 9 13
15 15 13 14 12 12 13 12 12 13 11 3 3 1 2 3 2 2 9 13 11 12 8 11 9 4 4 4 5 4 5 6 6 7 3 2 3 3 4 6 1 3 10 2 12 9 11
16 14 14 15 15 14 12 12 12 14 14 3 3 2 2 3 2 5 8 9 10 8 4 5 7 8 1 4 4 5 4 3 6 8 7 6 2 0 1 1 6 5 6 4 3 5 5
17 17 16 16 14 14 13 12 11 11 13 4 3 3 2 2 5 4 4 4 4 5 6 4 9 5 1 3 3 1 3 3 4 5 12 6 4 4 2 1 3 2 5 6 4 3 2
15 16 16 16 15 14 12 12 12 11 12 5 3 6 2 4 5 3 4 3 3 3 4 5 12 8 4 3 1 2 3 1 4 4 1 4 1 7 2 1 7 6 6 6 3 4 1
17 16 16 16 16 15 14 13 13 13 12 5 3 6 5 3 6 6 6 4 5 2 1 5 6 5 4 2 2 3 3 2 4 2 2 7 6 4 3 2 7 4 2 1 3 3 4
17 16 17 17 15 14 15 15 14 14 13 8 4 5 4 3 5 2 7 10 7 7 3 2 3 2 1 3 4 4 4 2 3 4 2 4 6 6 7 7 4 5 4 2 4 2 5
Wind_Direction
3 3 5 4 5 4 1 4 358 350 342 338 337 333 331 328 325 325 319 316 315 313 315 323 324 330 334 310 248 282 302 52 202 176 202 200 189 177 207 221 242 232 249 255 253 253 256
345 348 345 347 344 342 343 349 346 341 342 341 343 336 330 326 322 319 313 310 308 306 310 316 319 324 261 271 260 274 45 297 230 235 209 187 229 201 269 232 239 261 246 251 252 255 253
345 335 334 344 342 345 341 346 344 341 333 328 330 329 328 325 322 316 310 308 305 303 307 308 309 286 251 245 297 308 320 275 247 217 240 218 238 204 280 304 252 251 268 278 251 231 236
353 341 330 338 344 345 337 331 333 341 343 334 331 331 331 327 319 315 312 310 303 301 299 298 295 235 252 263 273 283 221 267 253 241 212 238 243 243 183 245 314 293 261 256 172 63 267
339 336 345 343 341 340 339 333 324 333 336 342 335 336 333 331 324 316 317 312 302 300 295 265 184 180 263 293 247 252 194 237 263 260 262 258 228 216 207 190 307 234 256 260 297 220 249
336 338 329 333 331 334 331 334 332 329 334 332 329 331 333 332 329 321 325 312 299 312 81 157 242 322 257 264 276 306 182 212 217 284 265 204 211 206 122 145 231 226 257 233 217 277 234
343 339 348 345 348 341 333 336 337 339 340 336 330 330 328 331 332 324 333 340 10 340 39 264 251 262 298 292 305 249 9 348 250 198 206 223 181 218 195 212 231 239 248 251 190 237 292
331 341 343 340 335 327 326 322 322 327 328 330 329 326 322 327 326 324 347 14 315 300 295 260 264 264 260 272 287 278 144 214 218 221 201 259 236 209 212 221 236 237 248 260 275 265 260
321 328 334 332 331 329 330 329 322 321 320 316 317 321 329 332 316 350 318 276 336 343 275 283 249 248 238 193 235 253 175 203 202 234 209 223 232 197 202 218 227 236 236 249 249 267 266
346 338 328 323 328 334 327 329 326 324 326 322 321 323 334 336 340 317 280 344 335 327 306 278 230 246 200 185 242 216 217 191 211 217 205 247 238 245 222 223 208 237 229 242 250 242 254
335 326 322 326 329 325 322 323 316 316 321 321 320 316 319 323 250 282 302 340 331 177 293 269 226 219 179 175 277 201 151 173 216 179 165 225 199 202 225 223 212 233 245 234 240 240 221
318 315 320 324 316 311 314 315 316 315 315 313 314 318 320 305 253 242 325 342 350 197 241 270 282 308 152 230 249 358 152 147 177 221 267 237 298 211 231 228 229 232 250 264 243 211 244
302 307 313 312 316 312 303 304 309 320 318 315 318 314 306 288 254 329 21 9 231 225 285 235 346 334 313 230 227 201 173 188 167 152 223 259 253 260 256 281 261 183 170 246 254 234 238
294 301 298 297 303 318 318 317 317 320 317 306 304 300 273 248 241 272 49 226 239 213 235 305 335 306 260 236 256 226 194 190 225 154 140 191 289 211 217 213 197 207 177 177 209 188 242
289 296 302 304 311 308 314 315 312 306 310 310 320 295 264 233 224 140 251 244 257 258 38 347 325 301 14 359 341 320 304 230 196 201 192 206 246 266 226 191 185 227 225 194 178 181 124
283 281 289 299 295 299 304 305 305 309 312 317 318 309 268 257 148 106 236 255 241 328 334 329 309 343 349 321 316 276 22 340 344 5 354 260 262 257 295 123 221 201 175 207 243 194 235
280 285 278 285 289 288 290 299 303 305 308 317 28 332 280 239 99 116 260 245 299 288 318 333 316 297 303 316 324 19 9 53 20 340 352 358 208 261 296 26 208 174 226 178 130 150 217
281 271 275 277 282 278 287 293 297 300 305 30 232 278 256 342 260 224 237 223 286 287 308 301 278 284 280 348 327 35 39 311 80 68 5 334 300 222 207 216 230 184 205 158 153 171 154
270 275 269 267 271 277 282 286 292 299 292 113 263 265 315 120 231 264 277 292 285 303 299 282 292 303 329 13 344 7 47 341 357 50 90 317 342 272 173 338 18 31 17 16 126 124 178
261 269 263 264 270 265 276 286 284 289 272 116 285 304 309 21 17 293 318 276 282 289 287 292 280 269 3 9 308 306 339 277 293 136 143 291 260 3 37 190 212 359 33 35 51 64 274
261 259 256 258 267 258 268 276 284 290 251 109 226 246 229 277 314 287 299 295 308 306 329 317 339 1 346 322 313 334 332 344 342 9 197 151 274 333 296 353 210 109 14 3 123 234 92
259 258 251 259 258 249 258 265 269 275 162 115 255 253 344 287 303 19 339 300 338 357 294 326 299 323 341 335 359 336 359 23 280 327 353 301 272 328 282 351 38 308 291 271 245 132 289
255 256 249 251 245 254 259 258 256 242 165 158 197 293 198 246 320 27 264 318 316 319 296 335 340 326 339 300 243 244 229 243 241 263 344 341 346 359 321 336 302 320 5 216 222 172 194
247 251 242 249 248 252 252 256 255 236 188 153 197 248 252 267 200 242 295 296 319 328 283 293 317 290 270 259 270 264 248 256 268 260 179 310 341 10 286 340 254 274 308 51 97 53 86
242 242 246 243 246 251 251 252 269 222 211 150 179 152 236 260 214 283 294 330 319 311 281 279 334 292 176 12 356 334 327 335 243 217 233 168 141 318 150 280 292 323 20 15 324 53 84
236 236 244 246 247 256 245 248 258 241 221 134 192 156 229 269 228 269 320 289 304 332 330 308 329 290 339 77 41 74 289 267 298 294 201 185 143 130 70 160 240 220 316 344 308 112 177
241 237 244 243 241 249 240 242 249 247 233 149 213 168 164 263 258 252 249 258 318 296 273 310 330 337 23 7 193 195 237 226 286 265 195 168 69 197 175 233 286 271 309 345 79 223 160
235 239 241 237 234 240 241 247 244 242 233 173 216 178 174 240 265 240 252 255 290 256 286 312 354 1 346 338 256 276 215 276 286 296 292 190 157 170 134 135 256 280 354 143 244 314 85
230 237 238 234 239 237 242 243 238 240 240 196 215 182 167 204 248 266 252 246 232 239 214 300 242 256 349 315 8 322 295 44 316 289 330 224 179 170 170 204 266 359 277 131 335 237 127